Simultaneous Nadir Overpasses (SNOs) Predictions

Prediction of SNOs between LANDSAT-8 and METOP-A Satellite Orbit:

Table of predicted SNOs for the next 14.0 days since TLE Epoch: 7/28/2017
Index Date (LANDSAT-8) Time (LANDSAT-8) Lat,Lon (LANDSAT-8) SZA (LANDSAT-8 ) Date (METOP-A) Time (METOP-A) Lat,Lon (METOP-A) SZA (METOP-A ) Distance(km) Time Diff (sec)
1 07/30/2017 01:26:39 -81.23, 20.01 115.14 07/30/2017 01:25:54 -81.22, 19.96 115.17 0.89 45
2 07/30/2017 02:16:05 81.23,-172.24 64.89 07/30/2017 02:16:33 81.24,-172.15 64.91 1.72 28
3 08/01/2017 21:00:56 -81.21, 86.26 114.47 08/01/2017 21:00:15 -81.22, 86.24 114.48 0.46 41
4 08/01/2017 21:50:21 81.24,-105.65 65.61 08/01/2017 21:50:53 81.24,-105.52 65.64 2.15 32
5 08/04/2017 16:35:11 -81.22, 152.85 113.70 08/04/2017 16:34:34 -81.22, 152.89 113.71 0.72 37
6 08/04/2017 17:24:36 81.25, -39.09 66.37 08/04/2017 17:25:12 81.25, -38.91 66.41 2.97 36
7 08/07/2017 12:09:27 -81.23,-140.59 112.91 08/07/2017 12:08:54 -81.23,-140.47 112.91 1.99 33
8 08/07/2017 12:58:53 81.23, 27.07 67.11 08/07/2017 12:59:34 81.23, 26.92 67.11 2.59 41
9 08/10/2017 07:43:44 -81.22, -74.42 112.13 08/10/2017 07:43:16 -81.22, -74.61 112.16 3.10 28




NCC Satellite Simultaneous Nadir Overpasses (SNOs) Prediction Service
